Location: High Point State Park
(41.2941°N, 74.6906°W)
Time: 04:15:55
(UTC-05:00)

Hubble Space Telescope - Visible Passes

Search period start: 06 February 2016 00:00
Search period end: 16 February 2016 00:00
Orbit: 540 x 544 km, 28.5° (Epoch: 05 February)

Date Brightness Start Highest point End Pass type
(mag) Time Alt. Az. Time Alt. Az. Time Alt. Az.
13 Feb 3.5 19:50:44 10° SSW 19:51:14 11° SSW 19:51:14 11° SSW visible
14 Feb 3.2 19:41:07 10° SSW 19:42:25 13° SSW 19:42:25 13° SSW visible
15 Feb 3.1 19:31:35 10° SSW 19:33:36 14° S 19:33:36 14° S visible
